When you browse on this site, cookies collect data to enhance your experience and personalize the content and advertising you see.
Visit our Privacy Policy to learn more. By continuing to use the site, you agree to this use of cookies and data.
  • In Slovakia
  • List of Countries
  • For 7 days
  • Water Temperature
  • Satellite Maps
  • Weather Map
  • Weather Widgets
  • user-avatar
    Login

    Hourly Weather Przekora

    Today, 20 January, Sunday

    Time Temperature Precipitation Wind Pressure Humidity
    00:00 -1°C° 0 mm 1 mps 752 mmHg 70%
    01:00 -1°C° 0 mm 1 mps 752 mmHg 72%
    02:00 -1°C° 0 mm 1 mps 751 mmHg 73%
    03:00 -2°C° 0 mm 1 mps 751 mmHg 73%
    04:00 -2°C° 0 mm 1 mps 751 mmHg 74%
    05:00 -2°C° 0 mm 1 mps 751 mmHg 75%
    06:00 -2°C° 0 mm 1 mps 751 mmHg 75%
    07:00 -2°C° 0 mm 1 mps 751 mmHg 74%
    08:00 -2°C° 0 mm 1 mps 751 mmHg 71%
    09:00 -2°C° 0 mm 1 mps 751 mmHg 68%
    10:00 -1°C° 0 mm 1 mps 751 mmHg 64%
    11:00 -1°C° 0 mm 1 mps 751 mmHg 61%
    12:00 -1°C° 0 mm 0 mps 751 mmHg 57%
    13:00 0°C° 0 mm 1 mps 751 mmHg 53%
    14:00 0°C° 0 mm 1 mps 751 mmHg 54%
    15:00 0°C° 0 mm 1 mps 751 mmHg 56%
    16:00 -1°C° 0 mm 1 mps 751 mmHg 58%
    17:00 -1°C° 0 mm 1 mps 751 mmHg 59%
    18:00 -1°C° 0 mm 1 mps 751 mmHg 60%
    19:00 -1°C° 0 mm 1 mps 752 mmHg 61%
    20:00 -1°C° 0 mm 1 mps 752 mmHg 62%
    21:00 -1°C° 0 mm 1 mps 752 mmHg 63%
    22:00 -4°C° 0 mm 2 mps 752 mmHg 64%
    23:00 -4°C° 0 mm 2 mps 753 mmHg 66%

    Tomorrow, 21 January, Monday

    Time Temperature Precipitation Wind Pressure Humidity
    00:00 -4°C° 0 mm 2 mps 753 mmHg 68%
    01:00 -4°C° 0 mm 2 mps 753 mmHg 70%
    02:00 -4°C° 0 mm 2 mps 753 mmHg 72%
    03:00 -4°C° 0 mm 2 mps 753 mmHg 75%
    04:00 -4°C° 0 mm 2 mps 753 mmHg 78%
    05:00 -4°C° 0 mm 2 mps 753 mmHg 80%
    06:00 -5°C° 0 mm 2 mps 753 mmHg 82%
    07:00 -5°C° 0 mm 2 mps 754 mmHg 84%
    08:00 -4°C° 0 mm 2 mps 754 mmHg 81%
    09:00 -4°C° 0 mm 2 mps 754 mmHg 79%
    10:00 -3°C° 0 mm 2 mps 754 mmHg 77%
    11:00 -3°C° 0 mm 2 mps 754 mmHg 73%
    12:00 -2°C° 0 mm 2 mps 754 mmHg 69%
    13:00 -2°C° 0 mm 2 mps 754 mmHg 65%
    14:00 -2°C° 0 mm 2 mps 753 mmHg 66%
    15:00 -2°C° 0 mm 2 mps 753 mmHg 67%
    16:00 -1°C° 0 mm 1 mps 753 mmHg 68%
    17:00 -1°C° 0 mm 1 mps 753 mmHg 69%
    18:00 -3°C° 0 mm 2 mps 753 mmHg 70%
    19:00 -3°C° 0 mm 2 mps 753 mmHg 70%
    20:00 -3°C° 0 mm 2 mps 752 mmHg 70%
    21:00 -3°C° 0 mm 2 mps 752 mmHg 71%
    22:00 -4°C° 0 mm 2 mps 752 mmHg 71%
    23:00 -4°C° 0 mm 2 mps 752 mmHg 72%

    Day after tomorrow, 22 January, Tuesday

    Time Temperature Precipitation Wind Pressure Humidity
    00:00 -4°C° 0 mm 2 mps 752 mmHg 73%
    01:00 -4°C° 0 mm 2 mps 751 mmHg 74%
    02:00 -4°C° 0 mm 2 mps 751 mmHg 74%
    03:00 -4°C° 0 mm 2 mps 750 mmHg 74%
    04:00 -4°C° 0 mm 2 mps 750 mmHg 74%
    05:00 -4°C° 0 mm 2 mps 749 mmHg 74%
    06:00 -5°C° 0 mm 3 mps 749 mmHg 74%
    07:00 -6°C° 0 mm 3 mps 749 mmHg 74%
    08:00 -5°C° 0 mm 3 mps 749 mmHg 72%
    09:00 -5°C° 0 mm 3 mps 749 mmHg 70%
    10:00 -5°C° 0 mm 3 mps 748 mmHg 67%
    11:00 -4°C° 0 mm 3 mps 748 mmHg 64%
    12:00 -4°C° 0 mm 3 mps 747 mmHg 60%
    13:00 -2°C° 0 mm 2 mps 747 mmHg 57%
    14:00 -2°C° 0 mm 2 mps 746 mmHg 58%
    15:00 -3°C° 0 mm 2 mps 746 mmHg 59%
    16:00 -3°C° 0 mm 2 mps 745 mmHg 60%
    17:00 -3°C° 0 mm 2 mps 745 mmHg 62%
    18:00 -3°C° 0 mm 2 mps 745 mmHg 64%
    19:00 -3°C° 0 mm 2 mps 744 mmHg 66%
    20:00 -4°C° 0 mm 2 mps 744 mmHg 69%
    21:00 -5°C° 0 mm 3 mps 744 mmHg 71%
    22:00 -5°C° 0 mm 3 mps 744 mmHg 73%
    23:00 -5°C° 0 mm 3 mps 744 mmHg 73%

    23 January, Wednesday

    Time Temperature Precipitation Wind Pressure Humidity
    00:00 -5°C° 0 mm 3 mps 743 mmHg 73%
    01:00 -6°C° 0 mm 3 mps 743 mmHg 73%
    02:00 -6°C° 0 mm 3 mps 743 mmHg 75%
    03:00 -6°C° 0 mm 3 mps 742 mmHg 78%
    04:00 -6°C° 0 mm 3 mps 742 mmHg 81%
    05:00 -7°C° 0 mm 4 mps 742 mmHg 82%
    06:00 -8°C° 0 mm 4 mps 742 mmHg 84%
    07:00 -8°C° 0 mm 4 mps 742 mmHg 86%
    08:00 -8°C° 0 mm 4 mps 742 mmHg 83%
    09:00 -8°C° 0 mm 5 mps 742 mmHg 80%
    10:00 -7°C° 0 mm 5 mps 742 mmHg 77%
    11:00 -7°C° 0 mm 5 mps 742 mmHg 73%
    12:00 -6°C° 0 mm 5 mps 742 mmHg 69%
    13:00 -6°C° 0 mm 5 mps 742 mmHg 66%
    14:00 -6°C° 0 mm 5 mps 742 mmHg 67%
    15:00 -6°C° 0 mm 5 mps 742 mmHg 68%
    16:00 -5°C° 0 mm 4 mps 742 mmHg 69%
    17:00 -6°C° 0 mm 5 mps 743 mmHg 71%
    18:00 -6°C° 0 mm 5 mps 743 mmHg 72%
    19:00 -6°C° 0 mm 5 mps 743 mmHg 74%
    20:00 -6°C° 0 mm 5 mps 744 mmHg 74%
    21:00 -6°C° 0 mm 5 mps 744 mmHg 74%
    22:00 -6°C° 0 mm 5 mps 744 mmHg 73%
    23:00 -5°C° 0 mm 4 mps 744 mmHg 74%

    24 January, Thursday

    Time Temperature Precipitation Wind Pressure Humidity
    00:00 -5°C° 0 mm 4 mps 744 mmHg 75%
    01:00 -5°C° 0 mm 4 mps 745 mmHg 76%
    02:00 -7°C° 0 mm 4 mps 745 mmHg 77%
    03:00 -7°C° 0 mm 4 mps 745 mmHg 77%
    04:00 -7°C° 0 mm 4 mps 745 mmHg 78%
    05:00 -7°C° 0 mm 4 mps 745 mmHg 78%
    06:00 -7°C° 0 mm 4 mps 745 mmHg 78%
    07:00 -7°C° 0 mm 4 mps 746 mmHg 78%
    08:00 -5°C° 0.1 mm 4 mps 746 mmHg 78%
    09:00 -5°C° 0.1 mm 3 mps 746 mmHg 78%
    10:00 -5°C° 0.1 mm 3 mps 746 mmHg 78%
    11:00 -5°C° 0.1 mm 3 mps 746 mmHg 77%
    12:00 -5°C° 0.1 mm 3 mps 746 mmHg 77%
    13:00 -3°C° 0.1 mm 2 mps 746 mmHg 77%
    14:00 -3°C° 0.1 mm 2 mps 746 mmHg 79%
    15:00 -3°C° 0.1 mm 2 mps 746 mmHg 80%
    16:00 -3°C° 0.1 mm 2 mps 746 mmHg 82%
    17:00 -3°C° 0.2 mm 2 mps 746 mmHg 84%
    18:00 -3°C° 0.2 mm 2 mps 747 mmHg 85%
    19:00 -3°C° 0.2 mm 2 mps 747 mmHg 87%
    20:00 -3°C° 0.2 mm 2 mps 747 mmHg 88%
    21:00 -1°C° 0.2 mm 1 mps 747 mmHg 89%
    22:00 -1°C° 0.2 mm 1 mps 747 mmHg 90%
    23:00 -1°C° 0.1 mm 1 mps 747 mmHg 90%

    25 January, Friday

    Time Temperature Precipitation Wind Pressure Humidity
    00:00 -1°C° 0.1 mm 1 mps 747 mmHg 91%
    01:00 -1°C° 0.1 mm 1 mps 747 mmHg 91%
    02:00 -1°C° 0.1 mm 1 mps 747 mmHg 91%
    03:00 -2°C° 0.1 mm 1 mps 747 mmHg 92%
    04:00 -4°C° 0.1 mm 2 mps 747 mmHg 92%
    05:00 -4°C° 0.1 mm 2 mps 747 mmHg 92%
    06:00 -4°C° 0.1 mm 2 mps 747 mmHg 92%
    07:00 -4°C° 0.1 mm 2 mps 747 mmHg 91%
    08:00 -3°C° 0.1 mm 2 mps 747 mmHg 90%
    09:00 -3°C° 0.1 mm 2 mps 748 mmHg 89%
    10:00 -3°C° 0.1 mm 2 mps 748 mmHg 88%
    11:00 -4°C° 0 mm 3 mps 748 mmHg 86%
    12:00 -4°C° 0 mm 3 mps 748 mmHg 84%
    13:00 -4°C° 0 mm 3 mps 748 mmHg 82%
    14:00 -4°C° 0 mm 3 mps 748 mmHg 82%
    15:00 -4°C° 0 mm 3 mps 748 mmHg 82%
    16:00 -3°C° 0 mm 2 mps 748 mmHg 82%
    17:00 -3°C° 0 mm 2 mps 748 mmHg 84%
    18:00 -4°C° 0 mm 2 mps 748 mmHg 85%
    19:00 -4°C° 0 mm 2 mps 749 mmHg 87%
    20:00 -4°C° 0 mm 2 mps 749 mmHg 87%
    21:00 -5°C° 0 mm 2 mps 749 mmHg 88%
    22:00 -3°C° 0 mm 1 mps 749 mmHg 88%
    23:00 -3°C° 0 mm 1 mps 749 mmHg 88%
    Show more